User: anonymous   Login
Location: ?
(35.4996°N, 139.3166°E)
Time: 03:46:14
(UTC+00:00)
Language:

SL-16 R/B - Orbit

View from above orbital plane
View from above orbital plane
View from above satellite
View from above satellite

Ground track
Ground track

The orbit data is extracted from the following two-line orbital elements,

1 28353U 04021B   25107.81872910 -.00000143  00000-0 -49839-4 0  9996
2 28353  71.0018 196.3250 0005392 202.1158 157.9733 14.14540023 76758
Epoch (UTC): 17 April 2025 19:38:58
Eccentricity: 0.0005392
inclination: 71.0018°
perigee height: 840 km
apogee height: 848 km
right ascension of ascending node: 196.3250°
argument of perigee: 202.1158°
revolutions per day: 14.14540023
mean anomaly at epoch: 157.9733°
orbit number at epoch: 7675

The dashed part of the orbit path shows where the satellite is in the earth's shadow,  

DLR